STRATOSAT-TK 1 (RS52S)

Last updated on Wed Nov 05 2025 00:03:09 GMT+0000 (Coordinated Universal Time)

1 57167U 23091B 25308.61575362 .00121815 00000+0 14863-2 0 9995 2 57167 97.5311 18.3449 0004996 142.0926 218.0683 15.60046183130900
UTC large
Height (km)
Speed (km/s)
/
Latitude / Longitude
Inclination (degrees)
Orbital Period (minutes)
Azimuth
Elevation
Range (km)
Doppler Factor

Next 0 passes for location: London (51.5072 / 0.1276)

Sorry there are no passes over London.